Rockford, IL

10:41 PM CDT on May 21, 2018 (GMT -0500)
Greater Rockford

Weather History for KRFD - April, 2013

Change the Weather History Date:

Saturday, April 13, 2013

  Actual Average Record
Temperature  
Mean Temperature 40 °F 48 °F  
Max Temperature 47 °F 60 °F 83 °F (2006)
Min Temperature 33 °F 37 °F 18 °F (1950)
Degree Days  
Heating Degree Days 25 17  
Month to date heating degree days 292 247  
Since 1 July heating degree days 6121 6111  
Cooling Degree Days 0 0  
Month to date cooling degree days 0 0  
Year to date cooling degree days 0 0  
Moisture  
Dew Point 27 °F    
Average Humidity 66    
Maximum Humidity 82    
Minimum Humidity 49    
Precipitation  
Precipitation T in 0.12 in 1.21 in (2014)
Month to date precipitation 2.60 1.43  
Year to date precipitation 10.96 6.53  
Snow  
Snow T in 0.00 in 0.30 in (2006)
Month to date snowfall T 0.6  
Since 1 July snowfall 40.5 36.4  
Snow Depth 0.00 in    
Sea Level Pressure  
Sea Level Pressure 29.93 in    
Wind  
Wind Speed 11 mph (West)    
Max Wind Speed 23 mph    
Max Gust Speed 30 mph    
Visibility 10 miles    
Events Snow    
T = Trace of Precipitation, MM = Missing Value Source: NWS Daily Summary

Daily Weather History Graph

Daily Weather History Graph

Search for Another Location

Airport or City:

Astronomy

Apr. 13, 2013 Rise Set
Actual Time 6:18 AM CDT 7:35 PM CDT
Civil Twilight 5:49 AM CDT 8:04 PM CDT
Nautical Twilight 5:14 AM CDT 8:39 PM CDT
Astronomical Twilight 4:38 AM CDT 9:16 PM CDT
Moon 8:06 AM CDT (4/13) 11:02 PM CDT (4/13)
Length of Visible Light 14h 15m
Length of Day
13h 17m
Waxing Crescent, 10% of the Moon is Illuminated
Apr 13
Waxing Crescent
Apr 18
First Quarter
Apr 25
Full
May 2
Last Quarter
May 9
New

Hourly Weather History & Observations

Time (CDT) Temp. Windchill Dew Point Humidity Pressure Visibility Wind Dir Wind Speed Gust Speed Precip Events Conditions
12:40 AM 35.6 °F 26.6 °F 28.4 °F 75% 29.86 in 10.0 mi West 13.8 mph - N/A   Overcast
12:54 AM 36.0 °F 27.5 °F 28.9 °F 76% 29.88 in 10.0 mi West 12.7 mph - N/A   Overcast
1:54 AM 36.0 °F 28.5 °F 28.0 °F 73% 29.89 in 10.0 mi WSW 10.4 mph 17.3 mph N/A   Overcast
2:54 AM 35.1 °F 25.5 °F 27.0 °F 72% 29.88 in 10.0 mi West 15.0 mph - N/A   Overcast
3:54 AM 35.1 °F 25.9 °F 26.1 °F 70% 29.87 in 10.0 mi West 13.8 mph - N/A   Mostly Cloudy
4:54 AM 34.0 °F 25.0 °F 26.1 °F 73% 29.88 in 10.0 mi West 12.7 mph - N/A   Overcast
5:54 AM 34.0 °F 26.6 °F 28.9 °F 82% 29.88 in 10.0 mi West 9.2 mph - N/A   Overcast
6:30 AM 33.8 °F 23.9 °F 26.6 °F 75% 29.86 in 10.0 mi West 15.0 mph 20.7 mph 0.00 in Snow Light Snow
6:54 AM 34.0 °F 26.0 °F 26.1 °F 73% 29.89 in 10.0 mi West 10.4 mph 20.7 mph 0.00 in Snow Light Snow
7:54 AM 35.1 °F 25.2 °F 27.0 °F 72% 29.91 in 10.0 mi West 16.1 mph 23.0 mph 0.00 in   Overcast
8:46 AM 35.6 °F 24.5 °F 26.6 °F 70% 29.90 in 10.0 mi West 20.7 mph 27.6 mph N/A   Overcast
8:54 AM 36.0 °F 25.6 °F 27.0 °F 70% 29.92 in 10.0 mi West 18.4 mph 26.5 mph N/A   Overcast
9:21 AM 35.6 °F 25.2 °F 26.6 °F 70% 29.91 in 10.0 mi West 18.4 mph 27.6 mph N/A   Overcast
9:54 AM 37.9 °F 27.9 °F 26.1 °F 62% 29.93 in 10.0 mi West 19.6 mph 25.3 mph N/A   Overcast
10:54 AM 41.0 °F 32.2 °F 25.0 °F 53% 29.94 in 10.0 mi West 18.4 mph 26.5 mph N/A   Overcast
11:54 AM 39.9 °F 32.1 °F 24.1 °F 53% 29.96 in 10.0 mi WNW 13.8 mph 25.3 mph N/A   Mostly Cloudy
12:54 PM 39.0 °F 30.6 °F 25.0 °F 57% 29.97 in 10.0 mi West 15.0 mph 25.3 mph N/A   Overcast
1:54 PM 42.1 °F 34.9 °F 25.0 °F 51% 29.97 in 10.0 mi WNW 13.8 mph - N/A   Overcast
2:54 PM 43.0 °F 35.1 °F 26.1 °F 51% 29.97 in 10.0 mi West 17.3 mph 24.2 mph N/A   Overcast
3:54 PM 45.0 °F 37.9 °F 28.0 °F 52% 29.95 in 10.0 mi WNW 16.1 mph - N/A   Overcast
4:54 PM 44.1 °F 38.1 °F 27.0 °F 51% 29.96 in 10.0 mi West 11.5 mph 20.7 mph N/A   Mostly Cloudy
5:54 PM 44.1 °F 38.1 °F 28.0 °F 53% 29.96 in 10.0 mi West 11.5 mph - N/A   Overcast
6:54 PM 43.0 °F 37.2 °F 28.0 °F 56% 29.96 in 10.0 mi West 10.4 mph - N/A   Mostly Cloudy
7:54 PM 39.0 °F 35.7 °F 28.0 °F 65% 29.98 in 10.0 mi West 4.6 mph - N/A   Partly Cloudy
8:54 PM 39.0 °F - 28.0 °F 65% 29.98 in 10.0 mi Calm Calm - N/A   Mostly Cloudy
9:54 PM 39.0 °F - 30.0 °F 70% 29.99 in 10.0 mi Calm Calm - N/A   Overcast
10:54 PM 39.0 °F - 32.0 °F 76% 30.00 in 10.0 mi Calm Calm - N/A   Overcast
11:54 PM 39.0 °F 34.8 °F 30.0 °F 70% 30.01 in 10.0 mi ENE 5.8 mph - N/A   Overcast